Location: Barrio de Buenos Aires
(28.4500°N, 16.2667°W)
Time: 04:21:18
(UTC+00:00)

Cosmos 2082 - Pass Details

Date: 24 January 2020
Orbit: 833 x 856 km, 71.0° (Epoch: 19 February)

Event Time Altitude Azimuth Distance (km) Brightness Sun altitude
Rises 19:06:44 0° 203° (SSW) 3,362 7.5 -6.8°
Reaches altitude 10° 19:09:10 10° 205° (SSW) 2,431 6.8 -7.3°
Maximum altitude 19:14:43 72° 289° (WNW) 875 4.0 -8.5°
Drops below altitude 10° 19:20:19 10° 14° (NNE) 2,449 5.8 -9.7°
Sets 19:22:47 0° 17° (NNE) 3,388 6.5 -10.2°
